Wind_Speed
14 15 15 16 17 18 18 19 19 19 19 19 17 16 16 17 18 18 18 17 16 15 14 13 16 21 25 25 24 22 20 19 18 18 19 20 21 20 19 18 18 17 17 16 15 15 15 14 14 13 12 12 11 9 8 7 5 4 4 4 4 5 5 5 5 4 4 3 3 2 2 2 3 3 4 4 5 6 7 8 8 9 9 9 8
19 17 17 18 19 19 20 21 22 22 21 21 20 19 18 18 18 19 19 19 19 17 15 14 13 17 23 26 25 24 23 21 21 20 20 20 20 21 21 20 20 19 18 18 18 17 17 16 16 15 14 14 13 11 10 9 7 6 6 5 5 5 5 5 5 4 4 4 3 3 2 1 2 2 3 3 4 5 7 8 8 8 9 9 8
22 21 20 19 20 21 22 23 24 24 23 22 21 21 20 18 18 18 19 21 21 19 17 15 14 14 18 25 27 25 24 24 23 22 22 21 21 21 21 22 22 21 21 20 20 20 19 18 17 16 16 15 14 13 12 11 10 8 7 7 6 6 5 5 5 4 4 4 4 3 2 1 0 1 2 3 3 5 6 7 8 8 8 9 9
22 22 21 21 20 21 23 24 25 25 24 22 22 22 21 19 18 18 18 20 22 21 20 18 15 13 15 20 26 27 26 25 25 25 24 23 22 22 22 22 23 23 23 23 22 22 21 21 19 18 18 17 16 15 14 13 12 10 9 8 8 7 6 5 5 5 5 5 4 4 3 2 1 1 1 2 3 4 5 7 7 8 8 9 9
20 20 20 20 21 23 24 26 27 26 24 23 23 23 23 22 22 21 20 19 20 21 21 21 17 15 14 16 21 26 27 27 27 26 26 25 24 23 23 23 24 24 24 25 25 24 23 23 22 20 20 19 18 17 15 14 14 13 11 10 10 9 8 7 6 6 5 5 5 5 4 3 3 2 1 2 2 3 4 6 7 7 8 8 8
19 20 20 20 21 22 23 26 28 28 26 24 24 25 25 26 25 24 23 21 21 21 21 22 21 18 17 16 18 22 26 28 28 28 28 28 27 26 25 25 25 25 25 26 27 27 26 25 24 23 22 21 20 19 17 16 15 15 14 13 12 11 10 9 8 7 6 6 6 5 5 4 4 3 2 1 2 3 3 4 5 6 7 8 8
20 20 21 21 22 21 22 24 26 28 28 28 27 27 28 29 27 25 24 23 23 22 22 22 23 23 21 19 18 18 22 25 27 28 28 29 29 29 28 27 27 26 26 27 28 29 29 27 26 25 24 23 22 21 19 18 17 16 16 15 14 13 12 11 9 8 8 7 6 6 5 4 4 3 3 2 1 2 2 3 4 5 6 7 8
23 22 23 24 24 24 24 24 25 26 28 29 30 30 31 30 29 27 25 24 24 24 24 23 24 25 23 22 20 19 19 22 24 26 27 29 30 30 31 30 29 28 28 28 28 29 30 30 28 27 26 25 24 23 21 20 19 18 18 17 16 15 14 12 11 10 9 9 8 7 6 5 4 3 3 2 1 1 2 2 3 4 5 6 7
28 26 25 25 26 26 27 27 27 27 27 28 30 31 33 32 31 31 30 29 27 27 26 25 24 24 24 24 24 22 20 20 22 24 26 28 29 30 31 31 31 30 29 29 29 30 31 32 30 29 28 27 26 25 23 22 21 20 19 18 17 16 15 14 13 12 11 10 9 8 7 6 5 4 3 3 2 2 1 2 2 2 3 4 5
30 29 28 27 26 26 28 29 30 29 28 29 30 31 33 34 34 35 35 34 31 30 29 27 25 24 24 25 25 25 24 22 21 22 23 25 27 29 30 31 31 31 31 31 31 30 31 33 33 30 29 28 28 27 25 24 23 22 21 20 19 18 17 16 15 13 12 11 11 10 9 8 7 6 5 4 4 3 3 2 2 2 2 2 3
30 31 31 30 28 27 27 29 31 30 30 30 30 31 33 34 35 36 36 35 32 29 29 29 28 25 25 25 26 27 26 25 23 22 23 24 25 27 29 30 32 32 33 33 32 32 31 33 34 33 31 30 29 29 28 26 25 24 23 22 21 19 18 17 16 15 14 13 12 11 10 9 9 8 7 6 5 5 4 4 3 3 2 2 2
29 31 32 32 32 29 28 29 30 31 32 31 30 31 33 33 35 35 34 32 29 27 28 30 30 28 27 26 27 28 28 28 27 25 25 25 25 25 27 29 31 33 34 35 34 34 33 33 34 35 34 32 31 31 30 29 27 25 25 24 22 21 20 18 17 16 15 14 13 12 11 11 10 10 9 9 8 7 6 6 5 5 4 3 2
31 31 31 32 33 32 31 30 30 32 32 32 31 32 34 34 35 36 35 32 30 28 29 29 30 30 29 28 28 28 28 28 28 28 27 26 26 26 26 28 30 32 35 36 36 35 34 33 34 36 36 34 33 32 32 31 29 27 27 26 24 23 21 20 19 18 17 15 15 14 13 12 11 11 10 10 10 10 9 8 7 7 6 5 4
32 32 32 32 32 33 33 32 31 32 31 30 32 34 35 35 35 36 35 34 33 31 30 29 30 31 32 31 29 28 28 28 28 29 29 28 28 27 26 26 28 31 34 36 37 36 36 34 34 36 38 36 34 34 34 33 31 30 29 28 26 24 23 21 20 19 18 17 16 16 15 14 13 12 11 11 11 11 11 10 9 9 8 7 7
32 33 33 32 32 32 33 33 33 32 30 29 32 34 35 36 37 37 36 35 34 33 33 32 31 31 33 32 30 30 29 28 29 30 31 31 30 28 26 25 27 30 32 34 35 36 36 35 34 35 38 39 37 35 35 34 33 32 31 30 28 26 24 23 22 21 20 19 18 17 16 15 14 13 12 12 12 12 12 12 11 11 10 9 9
33 34 33 33 33 33 32 33 34 33 30 30 32 32 33 36 38 38 37 37 37 36 36 35 33 32 34 33 32 33 30 29 30 31 33 32 31 29 27 26 26 28 30 32 34 36 37 36 35 35 37 39 39 37 36 36 35 34 32 31 30 28 26 25 24 24 22 21 19 18 17 16 15 14 13 12 12 12 12 12 13 13 12 11 11
32 33 33 33 33 33 33 33 34 33 31 30 31 31 32 35 36 36 36 37 38 40 40 38 35 34 35 34 33 33 31 31 33 33 32 32 31 31 30 29 28 27 28 31 33 36 37 37 36 36 37 39 40 39 38 37 37 35 34 33 31 30 28 27 26 25 24 22 21 19 18 17 16 15 14 13 13 13 12 13 13 14 14 13 13
32 33 33 33 32 32 32 32 33 33 32 30 30 30 31 33 35 35 37 38 39 41 40 38 38 37 36 35 34 33 33 34 35 35 34 33 32 32 31 31 31 29 28 29 32 35 38 38 38 37 37 39 41 41 40 39 38 37 36 35 33 32 30 29 28 27 25 24 22 20 19 18 17 16 16 15 14 14 13 13 13 14 15 14 14
32 33 33 33 33 33 33 32 33 33 32 31 30 31 32 33 35 37 39 41 41 39 37 37 40 39 37 35 35 36 36 36 36 36 36 35 33 33 32 32 32 31 29 29 31 34 37 38 39 39 39 40 42 43 42 41 40 39 38 37 35 34 32 30 29 28 27 26 24 22 20 19 18 18 17 16 16 15 15 14 14 15 15 15 15
31 32 33 33 33 34 34 34 34 33 33 32 32 33 34 34 35 37 39 42 42 39 36 38 40 40 39 37 35 35 36 36 37 37 37 36 35 34 33 33 34 33 32 31 32 34 36 38 39 40 40 40 41 43 43 42 41 40 39 38 37 35 33 32 31 30 29 27 26 24 22 21 20 19 18 18 17 17 16 16 16 15 16 16 16
31 32 33 33 33 33 34 35 35 35 35 34 34 35 35 35 35 37 39 41 42 40 37 38 40 39 39 38 35 36 36 36 37 38 37 37 36 36 37 36 35 35 35 34 33 34 35 37 39 40 40 40 40 43 44 43 42 41 40 39 38 36 34 33 32 32 31 29 28 26 24 22 21 20 20 19 19 18 18 18 17 17 17 17 17
33 33 33 33 33 34 35 35 35 36 36 35 35 36 36 36 36 37 38 39 40 41 40 39 39 38 39 38 36 37 38 37 37 38 39 39 38 38 40 39 36 37 37 37 36 35 35 36 38 40 40 39 40 42 44 44 43 42 41 41 39 38 36 34 34 33 32 31 29 28 26 24 22 22 21 21 20 20 20 20 19 19 19 18 18
38 37 35 33 32 32 33 35 36 36 36 36 36 37 37 37 38 39 39 38 39 42 43 42 40 39 40 39 37 38 39 38 38 40 42 42 40 39 40 41 39 38 38 39 39 38 36 35 36 38 40 40 39 40 43 44 43 42 42 42 41 39 37 36 35 34 33 32 31 30 28 26 25 24 23 22 22 21 21 21 21 20 20 20 20
41 40 38 35 33 31 31 33 35 36 35 36 36 37 38 38 38 39 40 39 38 40 44 45 43 42 42 40 37 39 40 38 39 42 44 43 43 41 40 42 42 40 40 41 41 39 37 36 35 37 39 40 39 39 41 43 43 43 43 43 42 40 39 38 37 35 35 34 32 31 30 28 27 26 25 24 24 23 22 23 23 22 22 21 21
41 39 38 36 34 32 31 31 33 35 35 35 36 37 38 39 39 39 40 40 40 39 42 46 47 44 43 40 38 40 40 38 40 44 44 45 46 43 40 42 43 43 42 43 42 40 38 36 35 36 39 41 41 40 41 43 43 43 44 44 44 42 41 39 38 37 36 35 34 33 32 31 30 28 27 27 26 25 24 24 24 24 24 23 23
41 38 36 35 34 33 32 31 31 33 34 34 34 35 37 38 39 40 40 41 42 41 42 46 47 45 43 42 41 41 40 39 43 45 45 46 46 44 43 43 43 44 44 44 42 40 37 36 36 37 38 41 42 41 41 42 43 44 45 45 45 44 42 41 39 38 37 35 34 34 33 32 32 31 30 29 28 27 26 26 26 26 26 26 25
40 37 35 34 33 33 33 32 31 32 33 34 33 34 35 36 38 40 41 41 42 43 44 46 47 46 45 45 44 43 41 41 44 46 46 47 46 44 45 44 43 43 44 44 43 40 37 37 37 37 38 40 43 43 41 42 43 44 46 46 45 44 43 41 40 39 37 36 35 35 34 34 33 33 32 31 31 30 29 29 28 28 28 28 28
38 36 34 33 33 33 33 33 33 32 33 34 35 34 35 35 36 38 39 41 42 44 46 46 47 48 48 47 46 45 43 42 43 45 46 47 46 45 46 46 44 43 43 44 44 41 38 37 38 38 38 40 42 44 44 42 42 43 45 46 44 43 42 41 40 40 39 38 37 36 36 35 34 34 34 33 33 33 32 31 31 30 30 30 30
37 34 33 33 32 32 33 34 34 34 34 34 35 35 35 36 37 37 37 39 41 44 46 46 47 50 49 48 49 48 45 45 45 45 47 47 46 46 46 45 45 44 43 44 44 42 40 38 37 38 39 40 42 44 45 43 42 43 44 43 42 42 41 41 41 41 40 40 40 39 38 37 36 36 36 36 35 35 34 33 33 32 32 32 32
35 34 33 33 33 33 34 35 35 36 36 35 35 35 35 36 37 38 38 38 39 42 46 48 48 50 50 49 51 50 48 49 50 49 48 47 47 47 46 45 45 45 44 44 44 43 42 40 38 38 40 41 41 42 43 43 42 42 42 41 40 40 41 42 41 41 41 41 41 40 39 39 38 38 38 37 37 36 36 35 35 34 34 34 34
35 33 33 33 33 34 34 36 36 36 37 36 36 35 36 36 37 38 39 39 39 41 44 48 50 51 50 50 52 51 50 51 52 52 51 48 47 48 47 46 46 45 45 46 44 43 43 42 40 39 40 41 41 40 40 41 42 42 41 39 39 40 41 42 41 41 42 42 41 41 40 39 39 39 39 38 38 37 37 37 36 36 36 35 35
36 34 33 33 33 34 35 36 36 35 35 35 35 35 36 37 37 39 40 40 41 41 42 46 50 52 52 52 52 52 52 52 51 51 51 50 48 48 47 47 46 46 46 47 45 42 43 44 43 41 41 42 41 39 37 38 40 40 40 40 40 41 42 42 42 41 41 40 40 40 40 39 39 39 39 39 39 38 38 38 38 38 37 36 36
37 35 34 32 33 34 35 35 34 33 33 33 34 34 35 36 37 38 40 41 42 43 42 43 47 51 53 53 53 53 53 53 52 51 51 51 50 49 48 47 47 47 47 47 46 43 44 46 46 44 42 42 40 37 36 37 37 38 39 41 42 42 42 42 41 41 40 39 39 39 39 39 39 39 39 39 40 40 40 39 39 38 37 36 36
37 35 33 32 33 35 35 35 33 32 32 33 33 33 34 34 35 36 38 40 42 43 43 43 45 49 52 53 54 54 53 53 53 52 52 51 51 50 50 48 47 48 49 48 47 45 45 47 48 47 45 42 39 37 37 36 36 37 39 40 42 43 43 42 41 40 40 40 39 39 39 39 39 40 40 40 41 40 40 39 37 36 35 35 35
37 34 32 31 32 35 35 34 32 32 32 32 32 32 33 33 33 33 35 37 39 41 42 43 44 47 50 52 52 52 51 51 51 51 51 51 51 50 50 49 48 49 50 50 48 47 46 47 50 50 48 44 41 38 38 37 36 37 38 39 41 42 42 41 40 40 40 40 40 39 39 39 39 39 40 40 39 38 37 36 35 34 34 33 32
36 34 32 31 32 35 36 34 32 32 32 31 30 30 30 31 31 32 32 33 35 37 39 41 42 44 47 50 50 48 47 47 48 49 50 50 50 49 49 49 49 48 50 51 49 47 47 48 50 51 51 48 44 41 39 38 36 36 36 37 39 40 42 41 40 40 41 41 40 39 38 37 37 37 37 36 35 34 34 33 33 33 32 31 30
36 34 33 32 33 35 36 36 34 32 32 31 28 27 27 27 29 30 31 31 33 34 35 38 40 42 44 47 48 48 46 45 46 48 49 50 49 49 48 48 48 48 49 50 49 48 48 48 50 52 53 51 46 42 40 39 36 36 35 35 36 38 40 42 41 41 41 40 38 37 36 35 34 34 33 33 32 32 32 32 31 31 30 29 28
36 34 33 34 35 36 37 37 35 33 33 31 29 27 27 26 27 29 30 31 33 33 34 36 38 40 42 44 46 47 45 44 45 48 49 50 49 48 48 48 48 48 49 50 50 48 48 48 49 51 54 53 48 44 42 40 37 36 35 35 35 36 37 39 39 39 39 38 37 35 34 33 32 31 30 31 31 31 31 30 30 29 29 28 28
37 36 35 35 36 37 38 38 36 34 33 31 30 28 27 27 28 29 29 30 31 30 30 32 35 37 39 42 44 45 44 44 46 48 49 49 48 46 47 48 49 49 49 50 50 49 48 48 48 50 52 53 50 46 44 42 39 37 35 34 34 34 35 36 37 37 38 37 35 34 32 31 30 29 29 29 30 30 30 29 29 28 28 28 28
38 37 36 36 37 38 39 39 37 36 34 32 30 28 27 28 30 30 29 29 30 30 28 28 32 35 37 39 42 44 44 45 46 47 49 49 48 46 47 49 50 50 50 50 50 49 47 48 48 48 50 53 52 48 46 44 40 37 35 34 33 34 35 37 38 38 38 36 34 32 31 30 29 28 28 29 30 31 30 29 29 28 28 29 28
38 37 36 35 36 37 38 38 37 36 35 33 31 29 27 29 31 31 29 28 28 30 29 27 30 34 36 37 39 41 43 44 45 46 48 49 48 47 47 49 50 51 51 51 51 49 48 48 48 47 48 51 52 51 48 45 40 38 37 36 34 35 37 39 38 37 37 35 33 31 30 30 29 29 29 29 30 31 31 30 30 29 29 29 29
38 38 36 35 35 36 37 38 36 35 35 34 33 31 30 29 30 30 29 28 27 28 28 27 29 33 35 35 36 38 40 42 43 44 46 47 47 47 47 47 49 50 51 51 51 50 48 48 48 47 48 50 52 52 50 47 44 42 41 39 36 37 39 40 38 37 36 35 32 30 30 31 30 29 29 29 30 31 31 30 30 30 30 30 30
38 38 37 34 34 35 37 37 36 35 34 34 33 33 32 31 29 28 28 27 26 27 28 28 28 31 34 34 34 35 37 38 41 42 44 45 46 47 47 47 47 49 50 51 50 50 49 48 48 48 48 49 51 52 52 51 48 46 42 40 38 38 39 39 39 38 37 35 32 30 30 31 30 29 28 29 30 30 29 30 30 30 30 31 31
38 38 36 34 33 34 36 36 36 35 34 33 33 32 33 33 30 27 27 27 26 26 27 28 27 28 31 33 32 33 35 37 40 41 42 44 45 46 47 47 47 48 50 50 49 49 48 47 47 47 48 48 49 52 53 52 51 48 45 43 41 40 39 39 38 38 38 37 34 30 30 30 30 29 29 30 30 30 28 28 29 29 30 31 32
38 36 35 33 32 34 35 35 35 35 34 33 32 32 32 33 31 28 26 26 24 24 25 25 26 26 28 31 31 32 33 36 39 40 41 43 44 45 46 47 47 48 49 50 49 47 46 46 46 46 47 47 48 51 53 54 54 52 49 46 43 40 39 38 38 38 38 37 33 30 29 30 31 31 31 30 30 29 28 28 29 29 29 30 31
37 34 33 32 32 33 34 34 34 34 34 33 32 32 31 31 30 28 25 24 23 21 20 21 23 24 26 31 33 33 33 35 38 39 40 41 43 44 44 44 45 46 48 49 47 45 44 44 44 43 44 46 47 50 53 56 57 55 52 48 45 43 41 39 37 37 36 35 33 31 30 31 33 33 32 31 31 30 29 29 29 29 29 30 30
35 33 31 30 30 31 32 33 32 33 33 33 32 32 31 31 29 27 25 24 24 21 18 18 20 21 25 30 33 32 33 34 36 37 39 40 41 42 43 42 42 44 45 45 45 44 44 43 41 40 42 45 46 49 53 57 58 57 54 51 49 45 41 37 35 34 35 35 35 34 32 32 34 34 33 32 31 31 30 30 29 29 30 30 30
33 31 30 29 29 29 30 31 31 32 33 32 32 32 31 30 29 26 24 23 24 21 19 18 19 20 24 28 29 29 31 33 34 36 38 40 40 41 42 41 41 41 42 41 42 44 44 44 41 40 43 45 46 48 53 57 59 58 56 54 51 46 40 36 34 33 35 36 37 36 35 34 34 34 34 33 32 32 32 31 30 30 30 31 31
31 29 29 28 27 28 29 29 29 30 32 32 31 31 31 30 29 27 23 21 21 19 17 19 19 21 26 28 28 28 29 31 32 34 37 38 39 40 40 40 40 41 40 40 42 44 45 44 42 42 45 47 47 49 52 56 59 59 58 56 52 46 41 38 36 36 36 37 38 38 37 36 35 36 35 34 33 33 33 33 32 30 30 31 31
29 28 27 27 27 27 28 28 28 29 30 30 30 31 30 29 29 28 23 19 19 18 16 20 20 20 24 27 27 27 28 28 30 32 34 34 35 36 37 38 39 39 39 40 43 44 44 44 43 44 46 48 48 48 51 54 57 59 58 55 51 48 44 40 38 39 40 39 38 40 40 39 38 38 36 35 34 34 34 35 34 32 30 30 29
28 27 27 27 27 28 28 28 27 27 29 29 29 30 30 29 29 27 23 17 16 17 16 18 19 19 20 25 27 27 26 26 27 28 29 30 32 33 35 36 36 36 37 39 41 41 42 42 42 43 46 47 47 46 48 51 55 57 56 54 51 49 46 42 41 42 42 41 40 42 43 42 40 39 38 37 36 36 36 36 35 34 32 31 29
Wind_Direction
273 274 273 272 270 269 270 272 274 275 273 270 263 257 256 260 263 266 269 271 274 280 287 283 264 247 239 237 234 232 232 231 230 230 229 226 224 221 219 218 217 217 216 217 220 222 221 221 220 218 216 215 217 219 222 227 230 235 230 215 209 212 217 216 212 206 191 174 157 146 131 107 92 81 71 71 69 66 62 57 55 54 52 50 49
275 276 275 272 270 270 272 274 274 275 275 274 269 263 258 259 262 264 267 267 267 270 279 288 281 259 244 239 236 233 232 233 232 232 233 232 230 227 225 223 223 222 220 219 221 224 224 223 223 223 222 221 221 220 221 225 228 232 236 231 223 224 228 234 234 227 215 195 179 171 161 121 88 76 69 67 67 64 59 57 56 56 54 50 50
273 276 278 276 271 269 271 273 274 274 275 277 274 267 262 264 267 270 272 272 269 266 269 279 287 276 254 242 238 235 233 233 233 233 234 234 233 232 230 228 228 227 225 223 222 224 226 226 225 225 227 227 225 222 221 223 226 228 231 233 233 232 232 239 244 243 237 223 205 197 198 196 90 52 56 57 60 61 59 57 58 58 55 51 50
270 273 278 279 276 273 271 269 270 270 271 275 275 269 263 263 266 268 270 272 273 271 268 270 278 284 270 251 242 238 234 233 235 235 235 235 234 234 233 232 231 230 230 228 226 225 226 228 227 226 228 230 230 226 222 222 223 225 227 230 233 235 235 237 241 245 246 242 234 227 229 241 263 355 32 42 47 56 59 59 60 59 55 52 50
270 271 275 280 281 279 275 270 267 267 267 268 268 266 263 263 265 267 267 268 271 273 270 267 268 274 275 260 247 240 236 234 235 236 237 238 237 236 235 235 235 234 233 232 230 227 226 228 228 227 228 230 232 230 226 223 222 223 224 226 229 232 236 237 237 241 245 248 251 250 255 267 280 299 346 27 32 44 55 59 63 61 56 53 50
275 274 276 281 282 281 279 274 270 267 265 265 264 262 261 263 266 269 269 266 265 267 267 266 263 263 265 263 253 244 238 235 234 235 237 239 241 239 238 238 239 238 237 235 234 231 228 227 227 228 228 229 231 232 230 225 223 222 222 223 225 228 232 234 237 238 240 247 253 258 265 274 286 293 304 353 21 28 43 56 63 63 58 54 50
282 281 280 283 286 284 280 277 275 270 266 264 263 261 260 261 263 265 267 267 266 266 265 263 260 258 258 260 259 252 243 238 235 235 236 238 240 241 240 239 241 242 241 240 237 235 231 228 226 227 228 229 229 231 232 229 225 222 221 221 222 223 226 229 233 236 238 242 246 253 260 266 276 284 291 307 354 13 21 39 54 60 57 53 51
287 286 286 288 292 291 285 279 276 273 269 266 263 261 260 260 260 260 262 264 268 270 268 264 258 256 256 257 259 258 251 244 240 237 236 236 237 239 240 239 240 242 243 243 241 238 234 230 227 226 227 228 229 230 231 231 228 225 222 220 220 221 222 224 227 230 234 238 240 243 248 252 255 259 270 279 299 341 358 11 33 48 52 52 50
295 290 290 294 293 290 287 281 274 271 271 270 266 262 259 259 259 260 260 261 264 269 270 267 260 254 254 255 258 259 256 250 244 241 238 237 236 236 237 238 239 240 241 243 243 241 237 232 228 226 226 227 228 228 230 232 232 229 225 222 221 220 221 222 224 226 229 233 236 239 240 243 244 248 253 262 273 288 309 333 360 28 42 47 47
301 296 294 295 291 286 284 282 278 274 271 271 270 266 262 260 260 260 261 260 261 265 266 265 262 256 251 251 254 257 257 252 247 245 243 241 239 237 236 237 237 238 238 240 242 242 240 235 230 227 226 226 228 228 228 230 231 231 229 226 224 223 222 221 222 224 226 229 232 236 239 242 245 250 254 259 266 270 277 289 308 335 9 31 38
301 299 298 297 293 288 283 281 281 278 274 272 270 267 263 260 259 260 261 259 259 262 263 260 260 257 251 247 248 252 254 252 250 249 248 247 244 242 240 238 237 236 236 237 238 240 241 238 233 228 225 225 227 227 226 227 229 230 230 228 226 226 225 223 222 223 224 227 229 232 235 240 244 248 252 258 261 264 269 274 280 293 307 334 2
300 299 299 299 297 294 288 284 282 279 277 277 275 271 267 263 263 264 264 260 256 258 259 257 257 256 253 248 246 247 250 251 252 251 250 250 249 247 245 242 239 236 235 234 235 236 238 238 235 231 227 225 225 226 226 225 226 227 229 228 227 226 227 226 225 225 226 227 228 230 232 236 241 246 249 253 256 259 263 265 269 277 284 294 305
301 299 299 299 298 297 294 289 285 281 280 282 281 276 271 265 263 264 264 260 256 256 256 256 257 258 256 251 246 245 247 250 252 251 250 250 252 252 251 248 245 241 236 234 233 234 236 237 236 234 231 228 226 226 226 225 225 225 227 228 227 226 227 227 227 227 227 228 229 231 232 233 237 243 247 249 252 255 257 260 262 267 272 277 281
301 299 298 297 296 296 295 292 288 285 285 283 279 274 271 267 261 258 258 258 256 256 255 256 257 259 257 252 248 245 245 246 249 249 249 249 252 254 254 253 250 246 241 237 235 234 235 236 236 234 232 231 229 228 227 226 225 225 225 226 226 226 226 227 228 228 228 228 229 231 233 233 234 238 244 248 251 253 255 256 258 260 262 264 267
301 299 298 297 295 294 293 292 290 289 289 284 277 273 271 269 265 260 257 256 256 256 257 257 256 257 257 255 250 246 243 243 245 247 248 249 251 253 253 252 251 249 245 241 238 237 236 236 236 235 232 231 231 230 229 228 226 226 225 226 226 226 226 227 229 230 230 229 229 230 233 235 236 238 243 249 252 254 256 258 258 258 257 258 259
299 298 298 297 296 294 292 291 290 290 289 286 281 276 270 268 268 267 263 258 256 257 258 258 256 256 257 256 252 249 246 244 244 245 248 250 252 253 251 251 252 250 247 242 238 237 236 236 236 235 233 231 231 231 231 230 229 227 226 226 227 228 227 227 229 230 230 231 231 232 233 236 238 240 243 248 253 257 260 263 264 264 262 260 260
298 298 297 297 296 295 293 291 289 289 288 286 283 280 275 270 269 270 268 262 257 256 257 257 256 256 255 252 249 247 246 244 244 245 249 251 252 252 252 252 252 251 249 244 239 237 236 235 235 236 233 230 230 230 231 231 231 229 227 227 228 229 229 228 229 231 232 232 233 235 236 237 239 241 243 245 250 256 260 265 268 269 270 268 266
300 299 298 298 296 295 293 291 289 288 287 285 283 281 277 271 266 264 264 262 258 256 256 255 254 254 253 250 247 245 244 243 244 246 249 250 250 251 253 253 252 251 250 247 243 239 236 235 234 235 234 231 229 229 230 231 231 230 229 228 228 229 231 231 231 232 234 234 234 235 238 239 241 242 243 244 247 252 256 261 265 269 272 272 271
300 300 299 299 298 296 294 292 290 287 284 282 280 277 273 269 266 262 259 260 260 259 257 252 250 252 253 249 246 244 244 244 245 247 248 249 250 250 251 253 252 250 250 249 246 242 239 236 235 234 234 232 230 229 229 230 230 230 229 229 229 229 231 233 233 234 235 236 235 235 237 240 243 244 245 246 247 250 254 258 262 267 270 272 272
300 300 300 299 299 297 295 292 289 286 282 280 277 274 272 271 270 267 261 258 258 257 255 250 248 250 251 249 246 245 245 243 243 246 247 248 250 249 249 251 252 250 248 248 248 245 241 237 235 234 233 232 231 229 229 230 230 230 229 229 230 230 232 233 235 236 236 237 237 236 236 239 243 246 247 248 249 251 253 256 260 263 268 270 272
298 297 297 297 297 296 294 291 288 286 282 279 276 273 271 270 269 269 264 259 257 256 253 249 247 248 249 249 248 247 245 242 243 246 247 247 248 249 249 249 250 250 248 247 248 248 245 240 237 235 233 233 232 230 229 230 231 230 229 230 231 231 232 234 236 237 237 238 239 238 238 238 241 245 249 250 251 253 254 256 258 261 264 267 269
301 298 296 295 294 293 293 291 288 285 282 278 275 272 271 269 267 266 265 261 258 256 253 250 248 247 247 249 249 248 246 244 244 246 247 245 244 246 250 250 248 248 247 246 247 249 249 245 241 237 235 234 233 231 229 229 231 230 230 230 231 232 233 235 236 238 239 240 241 242 241 241 242 246 249 252 253 254 256 257 258 259 261 264 266
308 305 302 299 296 292 291 290 289 285 282 278 274 271 269 267 266 265 264 260 257 256 255 252 249 246 246 248 249 247 245 244 246 246 245 244 242 243 248 250 249 247 246 246 246 247 249 248 245 240 236 235 234 232 229 229 230 231 230 230 231 232 234 235 237 238 239 240 242 244 244 245 245 247 250 252 254 256 257 258 258 259 261 262 264
312 310 308 305 301 297 292 290 289 287 283 278 274 271 267 265 264 263 262 259 255 255 255 252 249 248 247 247 246 245 244 243 247 248 245 243 242 241 243 248 249 247 245 245 245 246 247 248 246 241 236 233 233 232 230 229 229 231 231 231 231 232 234 235 237 237 238 240 242 244 246 248 248 250 251 253 255 257 258 259 260 260 261 262 263
313 311 309 306 303 301 297 292 289 287 284 280 276 272 269 265 263 260 259 258 255 253 253 251 249 249 249 247 244 244 243 244 247 248 245 242 241 240 241 244 247 247 246 244 243 244 245 247 247 243 237 233 231 231 230 229 229 230 231 232 232 232 233 235 236 238 239 240 242 245 247 249 251 251 253 254 256 258 259 261 262 262 262 263 263
313 311 308 305 302 300 298 295 290 286 284 282 278 274 271 268 265 261 258 257 255 252 250 250 250 250 249 246 244 244 244 245 247 247 246 244 242 240 240 242 244 245 246 244 242 241 242 245 247 244 238 234 232 231 231 230 230 231 231 232 232 232 232 234 236 238 240 241 243 246 248 250 251 253 254 255 257 259 261 262 264 265 265 264 265
313 311 307 304 302 299 297 295 291 287 284 282 279 275 273 271 268 265 261 257 254 251 249 248 248 249 248 245 243 244 243 243 246 247 245 245 243 240 240 241 242 244 245 244 241 239 239 242 245 245 241 236 234 233 232 231 231 232 233 233 234 234 234 235 237 239 242 243 244 246 248 250 251 253 255 257 258 260 261 262 263 264 265 265 266
313 310 307 305 302 300 298 295 292 288 284 282 279 276 274 272 270 268 265 260 255 250 249 247 247 247 246 244 243 245 245 243 245 246 245 244 244 241 240 241 243 244 244 243 240 238 237 239 242 244 242 238 235 234 234 233 233 234 235 235 235 237 237 237 238 240 242 244 245 246 248 250 252 254 256 257 259 260 261 262 263 265 266 266 266
313 310 307 306 304 302 300 297 294 291 287 283 280 276 273 271 270 268 266 264 259 252 248 246 246 246 245 244 244 245 246 244 243 245 245 243 243 242 240 241 243 244 243 241 239 238 237 236 238 240 241 239 237 236 236 236 235 236 237 237 237 238 239 239 239 240 242 243 245 246 248 250 252 255 257 258 259 260 262 263 265 266 266 266 266
313 310 307 306 305 304 301 299 296 294 290 286 282 278 273 269 267 266 265 264 261 257 252 247 245 245 245 245 244 244 246 245 244 246 246 243 243 242 241 241 242 243 243 240 237 237 237 236 235 237 238 239 238 238 238 238 238 238 239 239 238 238 239 239 239 240 241 243 244 246 249 251 253 255 257 259 260 262 263 264 265 266 267 267 266
313 309 307 306 306 305 303 300 298 295 293 289 285 281 276 270 266 264 263 262 261 259 255 250 246 244 244 244 243 244 246 246 246 247 247 245 243 242 241 241 241 242 242 239 236 236 237 236 235 235 235 237 238 238 239 239 239 240 240 241 239 238 239 239 239 240 242 243 245 247 249 251 253 255 257 260 262 263 264 265 266 266 267 266 266
314 310 307 307 307 306 304 302 300 298 295 293 289 285 281 275 270 264 261 260 259 258 256 252 248 245 243 242 242 243 244 244 245 246 246 246 244 242 241 241 241 240 240 239 236 235 236 236 235 234 234 236 238 238 239 241 241 241 240 240 239 239 239 239 239 240 242 244 245 247 248 251 253 255 258 260 262 263 264 265 265 266 265 264 264
315 311 308 308 307 306 305 303 302 300 297 295 292 288 283 279 274 268 263 260 259 258 256 254 250 246 243 241 241 242 243 243 244 245 246 245 244 242 241 241 240 238 238 239 238 235 233 234 235 233 233 235 237 238 239 241 242 242 240 238 238 238 239 239 239 240 241 243 245 247 249 251 253 255 258 260 262 263 264 264 264 263 262 262 262
315 311 308 307 307 307 306 304 302 299 297 296 293 289 285 282 278 273 267 262 260 259 258 255 251 246 243 241 241 243 244 243 243 243 245 244 242 241 241 241 240 237 237 238 239 235 231 231 234 234 233 234 236 237 239 240 241 241 239 238 237 238 239 239 239 239 240 242 245 247 249 251 254 256 259 261 262 262 262 262 261 260 260 260 260
315 311 307 306 308 308 308 306 302 299 298 298 296 292 287 284 282 278 271 266 263 261 260 257 251 247 243 242 241 243 244 244 243 242 243 243 241 240 240 240 239 237 237 238 239 236 230 229 233 235 234 235 236 237 238 239 240 240 239 237 236 237 237 238 237 237 239 242 245 247 249 251 253 256 258 258 258 258 257 257 258 258 259 258 258
314 311 307 306 307 309 310 310 306 301 302 303 302 299 295 289 285 281 275 271 268 265 262 258 252 247 244 241 241 242 243 244 243 241 241 241 240 240 240 239 238 237 237 238 238 236 232 229 231 235 236 236 236 238 238 238 239 239 238 237 236 235 236 236 236 237 239 242 244 245 247 248 250 252 252 252 252 253 253 254 256 256 257 256 255
312 310 307 305 305 307 309 312 310 306 305 307 305 302 300 295 289 284 277 272 270 268 265 260 253 248 244 241 240 241 241 243 244 241 240 240 239 238 238 238 238 236 236 237 237 236 234 231 231 234 237 237 236 237 237 237 237 237 235 234 234 234 235 236 236 237 239 240 241 242 243 243 244 245 247 248 249 251 252 253 254 255 256 255 253
309 308 306 305 304 304 307 310 312 309 307 308 306 299 298 299 295 289 280 273 270 269 267 262 254 249 244 241 239 239 238 240 242 240 239 239 238 237 237 237 237 236 235 235 236 235 234 232 231 233 236 237 236 235 235 235 234 234 233 232 231 232 233 235 235 235 236 237 237 238 238 238 240 242 245 248 250 251 252 252 253 255 255 254 252
306 305 304 303 303 303 305 308 312 312 308 308 308 303 298 297 296 293 287 280 276 274 269 261 254 249 244 241 240 239 238 238 239 238 237 238 238 237 237 237 237 237 234 234 235 235 234 232 232 232 235 237 236 234 234 234 232 232 233 232 231 231 232 233 233 233 234 235 235 235 236 237 239 243 247 250 252 252 251 250 252 254 254 253 251
306 305 304 302 302 303 304 307 311 313 311 309 309 307 300 293 293 294 292 285 280 279 276 264 254 247 244 242 241 241 241 240 237 235 235 236 236 236 236 237 237 237 235 234 234 235 234 233 232 231 232 236 236 233 232 233 231 230 233 234 232 231 231 231 232 232 233 234 234 235 238 240 242 245 248 251 253 253 251 250 250 252 253 252 252
305 306 305 303 303 304 304 306 310 313 313 311 310 308 301 294 293 296 296 291 283 280 277 269 257 249 244 242 241 241 241 240 239 237 236 235 235 235 235 235 236 237 235 234 234 235 234 233 232 230 230 233 235 233 232 232 232 230 232 234 233 232 231 230 231 233 234 235 235 236 239 241 242 245 247 249 251 251 250 250 250 251 251 252 252
304 305 306 305 305 306 305 306 310 313 313 312 312 311 305 297 293 295 296 294 289 284 279 271 260 251 246 244 242 240 240 239 239 239 237 236 235 235 235 234 235 236 236 234 234 235 234 233 232 231 230 232 235 234 232 231 231 230 230 231 232 233 232 231 231 233 235 235 235 236 238 240 241 242 244 247 248 249 249 249 250 251 251 252 252
304 305 306 306 307 307 306 307 310 313 313 312 312 312 308 299 293 294 297 295 290 287 282 275 266 254 246 244 242 240 239 239 240 240 238 237 236 234 233 234 234 235 235 234 234 235 234 232 232 232 231 232 234 234 233 230 229 230 230 231 231 232 234 233 232 233 235 236 235 235 237 238 238 239 241 244 247 248 248 249 249 250 251 252 252
305 306 306 306 306 307 307 307 309 311 312 311 311 311 309 302 293 293 300 300 293 288 283 277 272 260 247 241 240 239 238 239 240 240 239 237 236 234 234 234 234 234 234 235 235 236 235 233 232 233 233 232 233 235 234 231 229 229 230 230 231 232 234 234 233 233 234 235 234 235 236 236 235 236 238 242 246 247 248 249 250 250 250 251 251
306 306 305 304 304 305 305 305 307 310 311 311 312 313 312 308 299 294 300 305 299 291 284 277 271 261 248 239 238 239 239 239 240 240 240 238 237 236 235 235 234 233 234 235 236 236 236 235 234 234 233 233 233 235 236 234 230 228 228 230 231 232 233 234 234 233 233 234 236 236 236 236 235 235 238 241 244 247 248 250 251 251 251 251 251
306 305 304 302 301 302 303 304 306 309 310 310 312 315 317 315 308 301 302 308 304 294 285 276 267 259 249 242 240 241 241 240 240 240 240 239 238 237 236 235 234 233 233 235 236 235 234 236 236 234 232 231 232 234 236 236 232 228 227 229 231 232 232 233 234 234 234 236 237 237 235 234 235 236 238 241 245 247 249 251 252 253 253 252 252
307 305 302 300 300 301 302 303 306 308 309 310 312 315 319 319 314 306 304 310 310 299 286 275 265 257 252 247 245 245 244 243 243 242 241 240 239 238 238 237 236 235 234 235 236 235 235 236 236 233 230 229 230 232 235 236 234 230 228 229 231 231 231 233 235 236 237 237 238 237 235 234 236 237 238 241 245 248 250 251 253 255 256 256 255
307 305 301 299 298 299 301 303 305 307 308 310 314 316 319 320 316 310 306 311 316 308 289 274 263 251 249 250 249 247 245 245 245 244 242 241 240 240 240 239 238 237 235 234 235 236 236 237 236 232 228 227 228 231 233 234 234 232 229 229 231 231 230 231 233 236 238 239 238 238 236 236 238 240 240 242 246 248 250 252 254 257 260 260 259
307 305 302 300 299 300 302 303 305 306 307 310 314 317 320 321 319 314 311 313 320 313 284 266 260 247 242 246 248 247 245 245 246 246 243 241 241 242 242 241 241 240 237 236 236 236 238 238 237 232 228 226 228 230 232 232 232 231 230 230 231 232 230 229 231 234 238 239 239 239 238 238 240 242 243 245 248 251 251 252 254 258 262 263 261
307 305 302 301 300 301 302 303 304 304 305 308 313 316 320 322 320 318 315 314 321 317 284 263 261 257 249 246 247 248 248 248 247 246 244 240 239 240 241 241 242 241 240 239 238 238 239 239 237 233 229 227 228 230 231 232 231 230 230 231 232 233 233 232 233 235 238 239 240 241 240 239 240 243 245 247 250 253 253 252 253 258 262 264 262
305 304 302 301 300 300 301 302 303 302 302 306 311 314 318 322 322 321 319 314 318 323 303 275 266 267 265 259 256 256 256 253 248 243 240 239 238 237 238 240 240 240 240 239 238 237 237 237 236 233 229 228 228 230 230 231 231 231 230 231 232 234 234 236 238 238 239 239 240 242 241 239 240 242 245 248 251 253 254 253 254 257 261 263 261
Height
5920 5920 5920 5919 5919 5918 5917 5916 5915 5914 5913 5914 5915 5917 5917 5917 5916 5915 5914 5914 5914 5915 5915 5915 5915 5915 5916 5916 5916 5917 5918 5919 5920 5920 5921 5921 5922 5922 5922 5923 5924 5925 5926 5927 5928 5928 5929 5930 5930 5931 5931 5932 5933 5933 5934 5934 5934 5934 5934 5934 5934 5935 5935 5935 5936 5936 5936 5936 5936 5936 5936 5936 5936 5936 5936 5935 5935 5934 5934 5933 5933 5932 5932 5931 5931
5919 5918 5918 5918 5917 5916 5916 5915 5914 5913 5912 5912 5913 5913 5914 5914 5914 5914 5913 5912 5912 5912 5913 5913 5913 5913 5913 5914 5914 5915 5916 5917 5918 5919 5919 5920 5920 5920 5921 5921 5922 5923 5924 5924 5926 5927 5928 5928 5929 5930 5930 5931 5932 5932 5932 5933 5933 5933 5933 5934 5934 5934 5934 5935 5935 5936 5936 5935 5935 5936 5936 5936 5936 5936 5936 5935 5935 5934 5934 5933 5933 5933 5932 5932 5931
5917 5916 5916 5916 5915 5915 5914 5913 5913 5912 5912 5911 5911 5911 5911 5911 5912 5912 5912 5911 5910 5910 5910 5911 5911 5911 5911 5911 5912 5912 5913 5915 5916 5917 5917 5918 5918 5919 5919 5920 5920 5921 5922 5923 5924 5925 5926 5927 5928 5928 5929 5930 5930 5931 5931 5932 5932 5932 5933 5933 5933 5933 5934 5934 5934 5935 5935 5935 5935 5935 5936 5936 5936 5936 5936 5936 5935 5935 5934 5933 5933 5933 5932 5932 5931
5914 5914 5914 5914 5913 5913 5912 5911 5910 5910 5910 5910 5909 5909 5909 5909 5909 5909 5909 5909 5909 5909 5909 5909 5909 5910 5909 5910 5910 5910 5911 5912 5913 5914 5915 5916 5916 5917 5917 5918 5918 5919 5920 5921 5922 5923 5924 5925 5926 5927 5928 5929 5929 5930 5930 5930 5931 5931 5932 5932 5933 5933 5933 5933 5934 5934 5934 5935 5935 5935 5935 5936 5936 5936 5936 5935 5935 5935 5934 5934 5933 5933 5932 5932 5932
5911 5911 5911 5911 5911 5910 5910 5909 5908 5908 5908 5907 5907 5907 5907 5907 5907 5907 5906 5906 5906 5906 5907 5907 5907 5907 5907 5908 5907 5908 5908 5909 5910 5912 5913 5914 5914 5915 5915 5916 5916 5917 5918 5919 5920 5920 5921 5922 5924 5925 5926 5927 5928 5929 5929 5929 5929 5930 5931 5931 5932 5932 5932 5933 5933 5933 5934 5934 5934 5935 5935 5935 5935 5935 5935 5935 5935 5935 5934 5934 5933 5933 5933 5932 5932
5909 5909 5909 5909 5908 5908 5907 5906 5906 5906 5906 5905 5904 5904 5904 5904 5904 5904 5904 5904 5903 5903 5904 5904 5905 5905 5905 5905 5905 5905 5905 5906 5906 5908 5910 5911 5912 5913 5913 5913 5914 5915 5916 5917 5917 5918 5919 5920 5921 5922 5924 5925 5927 5927 5928 5928 5928 5929 5929 5930 5931 5931 5931 5932 5932 5932 5933 5933 5933 5934 5934 5934 5935 5935 5935 5935 5935 5935 5934 5934 5933 5933 5933 5933 5932
5907 5907 5907 5906 5905 5905 5904 5903 5903 5903 5903 5902 5902 5901 5901 5900 5900 5901 5902 5901 5901 5901 5901 5901 5902 5902 5902 5903 5903 5903 5903 5903 5904 5905 5906 5907 5909 5909 5910 5911 5911 5912 5913 5914 5915 5915 5916 5917 5918 5920 5921 5923 5925 5926 5927 5927 5927 5928 5928 5929 5929 5930 5930 5930 5931 5931 5932 5932 5932 5933 5933 5933 5934 5934 5934 5934 5934 5935 5934 5934 5934 5933 5933 5933 5933
5905 5905 5904 5903 5902 5902 5901 5900 5900 5899 5899 5899 5898 5898 5897 5897 5897 5897 5898 5898 5898 5899 5899 5898 5898 5899 5900 5901 5901 5902 5901 5901 5902 5902 5903 5903 5904 5905 5906 5907 5908 5909 5910 5911 5912 5913 5913 5915 5916 5917 5919 5921 5922 5924 5925 5926 5926 5926 5927 5927 5928 5928 5929 5929 5929 5930 5931 5931 5931 5932 5932 5932 5933 5933 5934 5934 5934 5934 5934 5934 5934 5934 5934 5933 5933
5900 5901 5901 5900 5899 5899 5898 5896 5896 5896 5895 5895 5894 5894 5893 5893 5894 5894 5894 5894 5895 5896 5896 5896 5896 5896 5897 5898 5899 5900 5900 5900 5900 5900 5900 5900 5901 5901 5902 5904 5905 5906 5907 5908 5909 5910 5911 5912 5913 5914 5916 5918 5919 5921 5923 5924 5925 5925 5926 5926 5926 5927 5927 5927 5928 5928 5929 5930 5930 5931 5931 5931 5932 5932 5933 5933 5934 5934 5934 5934 5934 5934 5934 5933 5933
5895 5896 5897 5897 5896 5896 5894 5893 5892 5892 5891 5891 5890 5890 5889 5889 5889 5889 5890 5891 5891 5892 5893 5893 5893 5893 5893 5894 5896 5897 5897 5897 5897 5898 5898 5898 5898 5898 5899 5900 5901 5902 5903 5904 5905 5906 5908 5909 5910 5912 5913 5915 5916 5918 5920 5922 5923 5924 5924 5925 5925 5925 5926 5926 5926 5927 5927 5928 5929 5929 5930 5930 5931 5931 5932 5932 5933 5933 5933 5933 5933 5933 5933 5933 5933
5893 5892 5892 5892 5893 5892 5891 5890 5888 5887 5887 5886 5886 5886 5886 5885 5885 5884 5885 5886 5888 5888 5889 5889 5890 5890 5890 5891 5892 5893 5894 5894 5895 5895 5895 5895 5895 5895 5896 5896 5897 5898 5899 5900 5902 5903 5904 5906 5908 5909 5910 5911 5913 5915 5917 5919 5921 5922 5923 5923 5924 5924 5925 5925 5925 5925 5925 5926 5927 5928 5928 5929 5929 5930 5931 5931 5932 5932 5933 5933 5933 5933 5933 5933 5933
5892 5890 5889 5888 5887 5887 5887 5886 5884 5883 5882 5882 5883 5883 5883 5882 5882 5881 5881 5883 5884 5884 5884 5885 5886 5887 5887 5887 5888 5889 5890 5891 5892 5892 5892 5892 5892 5892 5893 5893 5894 5894 5895 5896 5898 5899 5901 5902 5904 5906 5907 5908 5910 5912 5913 5916 5917 5919 5920 5921 5922 5922 5923 5923 5924 5924 5924 5924 5925 5926 5926 5927 5928 5928 5929 5930 5931 5931 5932 5932 5932 5932 5932 5932 5932
5889 5888 5887 5885 5883 5882 5882 5881 5880 5879 5879 5880 5881 5880 5878 5879 5878 5877 5877 5879 5880 5880 5880 5880 5882 5883 5883 5883 5883 5885 5886 5888 5889 5889 5889 5889 5889 5889 5890 5890 5891 5891 5892 5893 5894 5895 5897 5899 5901 5903 5904 5906 5907 5908 5910 5912 5914 5916 5917 5919 5920 5920 5920 5921 5922 5922 5922 5923 5923 5924 5925 5925 5926 5927 5928 5928 5929 5930 5931 5931 5931 5931 5931 5931 5931
5885 5884 5883 5882 5880 5879 5877 5876 5876 5875 5876 5877 5876 5874 5873 5873 5872 5872 5872 5873 5875 5875 5875 5876 5877 5879 5879 5878 5879 5881 5882 5884 5885 5885 5885 5885 5885 5886 5887 5887 5888 5888 5889 5890 5891 5892 5894 5895 5897 5899 5901 5903 5904 5905 5907 5909 5911 5913 5914 5916 5917 5918 5918 5919 5920 5920 5921 5921 5921 5922 5923 5924 5925 5925 5926 5927 5928 5928 5929 5930 5930 5930 5930 5930 5930
5880 5879 5878 5877 5876 5876 5874 5872 5871 5871 5873 5873 5871 5870 5870 5869 5867 5867 5867 5869 5870 5871 5871 5871 5872 5874 5874 5875 5876 5876 5878 5880 5881 5881 5881 5881 5882 5883 5884 5884 5884 5885 5886 5887 5889 5890 5891 5892 5893 5895 5897 5899 5901 5902 5904 5906 5908 5909 5911 5913 5914 5915 5916 5917 5917 5918 5919 5919 5920 5920 5921 5922 5923 5924 5925 5926 5926 5927 5928 5928 5929 5929 5929 5929 5929
5876 5875 5874 5873 5872 5871 5870 5868 5866 5867 5868 5868 5867 5866 5866 5865 5863 5863 5864 5864 5866 5866 5866 5867 5867 5868 5869 5871 5873 5872 5875 5877 5877 5876 5876 5877 5879 5880 5881 5881 5881 5881 5882 5884 5885 5886 5887 5889 5890 5891 5893 5895 5897 5899 5901 5902 5904 5906 5908 5910 5912 5913 5913 5914 5915 5915 5916 5917 5918 5919 5920 5921 5922 5922 5923 5924 5925 5926 5926 5927 5927 5928 5928 5928 5928
5873 5871 5870 5869 5867 5866 5866 5864 5863 5862 5863 5863 5862 5861 5861 5860 5859 5858 5858 5859 5860 5861 5861 5863 5863 5863 5864 5867 5868 5868 5871 5872 5872 5872 5873 5874 5875 5875 5877 5877 5877 5878 5879 5880 5881 5882 5883 5885 5886 5888 5889 5891 5893 5895 5897 5899 5901 5903 5905 5907 5908 5910 5911 5911 5912 5913 5914 5915 5916 5917 5918 5919 5920 5921 5921 5922 5923 5924 5925 5925 5926 5926 5927 5927 5927
5869 5867 5865 5864 5863 5862 5861 5860 5859 5858 5858 5858 5858 5857 5855 5854 5853 5853 5853 5853 5853 5854 5856 5858 5858 5857 5858 5861 5863 5864 5865 5866 5866 5868 5869 5870 5870 5871 5872 5873 5874 5875 5876 5876 5877 5878 5879 5881 5883 5884 5885 5887 5889 5891 5893 5895 5897 5899 5901 5903 5904 5906 5908 5909 5910 5911 5912 5913 5914 5915 5916 5917 5918 5919 5919 5920 5921 5922 5923 5924 5924 5925 5925 5926 5926
5865 5863 5861 5860 5858 5857 5856 5855 5854 5853 5853 5853 5853 5851 5849 5848 5847 5847 5848 5848 5847 5849 5852 5852 5851 5852 5853 5855 5857 5859 5860 5861 5862 5864 5865 5866 5867 5867 5869 5869 5870 5871 5872 5873 5873 5874 5875 5877 5878 5880 5881 5882 5884 5887 5889 5891 5893 5896 5898 5899 5901 5903 5905 5906 5907 5908 5909 5910 5912 5913 5914 5915 5916 5917 5918 5918 5919 5920 5921 5922 5923 5923 5923 5924 5924
5862 5860 5857 5856 5854 5852 5851 5850 5849 5848 5847 5848 5847 5845 5843 5843 5843 5843 5843 5843 5842 5844 5846 5845 5845 5848 5848 5849 5852 5854 5855 5856 5857 5858 5860 5862 5863 5863 5865 5865 5866 5868 5868 5869 5869 5870 5871 5872 5874 5875 5877 5878 5880 5883 5885 5888 5890 5892 5894 5896 5897 5899 5901 5903 5905 5906 5907 5908 5909 5910 5911 5913 5914 5915 5915 5916 5917 5918 5919 5920 5921 5921 5922 5922 5922
5859 5856 5854 5852 5850 5848 5846 5844 5843 5842 5841 5842 5841 5840 5839 5838 5838 5837 5837 5837 5838 5839 5840 5839 5840 5842 5842 5844 5847 5848 5849 5851 5852 5854 5856 5858 5859 5859 5859 5861 5863 5864 5864 5864 5865 5866 5867 5868 5869 5871 5873 5875 5877 5879 5882 5884 5886 5889 5891 5893 5894 5896 5898 5900 5901 5903 5904 5905 5907 5908 5909 5910 5911 5912 5913 5914 5915 5915 5916 5917 5918 5919 5920 5920 5920
5854 5852 5850 5848 5846 5844 5842 5839 5838 5836 5835 5835 5835 5834 5834 5833 5832 5831 5831 5833 5834 5834 5834 5834 5834 5836 5837 5839 5841 5842 5843 5845 5848 5850 5851 5852 5854 5854 5854 5855 5858 5860 5860 5860 5861 5862 5863 5864 5866 5868 5870 5872 5873 5875 5877 5880 5883 5885 5887 5889 5890 5893 5894 5896 5898 5900 5902 5903 5904 5905 5907 5908 5909 5910 5911 5912 5912 5913 5914 5914 5915 5916 5917 5918 5918
5846 5845 5844 5842 5841 5839 5837 5834 5832 5831 5829 5829 5828 5828 5827 5827 5827 5826 5826 5828 5829 5828 5828 5829 5829 5830 5831 5833 5835 5837 5837 5839 5842 5844 5845 5846 5849 5850 5850 5850 5852 5855 5856 5856 5856 5857 5859 5861 5862 5864 5866 5868 5870 5871 5873 5876 5879 5881 5883 5885 5887 5889 5891 5893 5895 5897 5898 5900 5901 5903 5904 5905 5907 5908 5909 5909 5910 5911 5911 5912 5912 5913 5914 5915 5916
5839 5837 5836 5835 5834 5833 5831 5829 5826 5825 5824 5823 5822 5821 5821 5821 5821 5820 5820 5821 5823 5823 5822 5823 5824 5824 5826 5828 5830 5831 5831 5833 5836 5838 5839 5841 5843 5845 5846 5846 5847 5850 5851 5851 5851 5853 5855 5857 5858 5860 5862 5864 5866 5867 5869 5871 5874 5877 5879 5881 5883 5885 5887 5889 5891 5893 5895 5897 5898 5900 5901 5903 5904 5905 5906 5907 5908 5908 5909 5909 5910 5910 5911 5912 5913
5834 5832 5830 5829 5827 5826 5825 5824 5821 5819 5818 5817 5816 5815 5815 5815 5815 5814 5814 5815 5816 5817 5817 5816 5817 5819 5821 5823 5825 5826 5826 5828 5831 5833 5834 5835 5836 5840 5842 5841 5842 5844 5845 5846 5847 5849 5851 5853 5854 5855 5857 5859 5861 5863 5865 5867 5869 5871 5873 5876 5878 5881 5883 5885 5887 5889 5891 5893 5895 5896 5898 5899 5901 5902 5903 5904 5905 5906 5906 5907 5907 5907 5908 5909 5910
5830 5828 5826 5824 5822 5820 5818 5817 5816 5814 5812 5811 5810 5809 5808 5808 5808 5808 5808 5808 5809 5811 5812 5811 5812 5814 5816 5818 5820 5820 5821 5823 5825 5826 5828 5829 5831 5834 5836 5836 5837 5838 5840 5841 5843 5845 5847 5849 5849 5851 5852 5854 5857 5859 5860 5862 5865 5866 5868 5871 5873 5876 5879 5881 5884 5886 5888 5889 5891 5893 5894 5896 5897 5899 5900 5901 5902 5903 5904 5904 5904 5905 5905 5906 5907
5826 5823 5821 5819 5817 5815 5813 5812 5811 5809 5807 5806 5805 5804 5802 5802 5802 5802 5802 5803 5803 5804 5806 5806 5806 5808 5810 5812 5814 5814 5816 5818 5819 5820 5822 5823 5825 5828 5829 5830 5832 5833 5835 5836 5838 5841 5843 5844 5845 5846 5848 5850 5852 5854 5856 5858 5860 5862 5863 5866 5869 5872 5875 5878 5880 5882 5884 5886 5887 5889 5890 5892 5893 5895 5896 5898 5899 5900 5900 5901 5901 5902 5902 5903 5904
5821 5818 5816 5814 5812 5810 5808 5806 5805 5804 5802 5801 5800 5799 5798 5797 5796 5796 5796 5796 5797 5797 5798 5800 5802 5802 5802 5805 5807 5808 5810 5812 5813 5814 5816 5817 5819 5822 5823 5825 5827 5828 5830 5830 5833 5837 5839 5839 5841 5842 5843 5845 5846 5848 5850 5852 5855 5857 5859 5862 5866 5869 5872 5874 5876 5878 5880 5882 5883 5885 5886 5888 5890 5891 5892 5894 5895 5896 5897 5897 5898 5899 5899 5900 5901
5816 5814 5811 5809 5807 5805 5802 5800 5799 5797 5796 5795 5794 5793 5793 5791 5790 5790 5790 5790 5790 5790 5791 5793 5795 5795 5796 5798 5800 5801 5803 5806 5807 5807 5808 5810 5813 5815 5817 5819 5821 5822 5824 5826 5829 5832 5834 5835 5836 5838 5838 5840 5841 5843 5845 5848 5851 5852 5854 5858 5862 5865 5867 5869 5871 5873 5875 5877 5879 5880 5882 5884 5885 5887 5888 5890 5891 5892 5893 5894 5895 5895 5896 5896 5897
5812 5809 5806 5804 5802 5800 5797 5795 5793 5791 5790 5789 5788 5787 5786 5786 5784 5783 5784 5784 5783 5784 5784 5786 5788 5788 5789 5791 5793 5794 5796 5799 5800 5801 5802 5804 5806 5808 5810 5812 5814 5817 5820 5821 5824 5828 5829 5830 5832 5833 5834 5835 5836 5838 5841 5844 5846 5847 5850 5854 5858 5860 5862 5863 5866 5868 5870 5872 5874 5876 5878 5880 5881 5883 5884 5885 5887 5888 5889 5890 5891 5891 5892 5892 5893
5807 5805 5802 5800 5797 5795 5793 5790 5788 5785 5784 5782 5781 5780 5780 5779 5778 5777 5777 5777 5777 5777 5777 5778 5780 5781 5783 5784 5786 5788 5790 5791 5793 5795 5796 5798 5800 5802 5804 5806 5808 5811 5814 5816 5819 5823 5825 5825 5827 5828 5829 5830 5832 5835 5838 5840 5841 5843 5846 5850 5852 5855 5856 5858 5861 5863 5865 5867 5870 5872 5874 5875 5877 5878 5879 5881 5882 5884 5885 5886 5886 5887 5888 5888 5889
5803 5800 5798 5795 5793 5791 5788 5786 5783 5781 5779 5777 5775 5774 5773 5772 5771 5771 5770 5769 5770 5770 5770 5771 5772 5774 5776 5777 5780 5782 5783 5785 5787 5788 5790 5792 5794 5795 5797 5800 5802 5806 5808 5810 5814 5818 5820 5820 5821 5823 5824 5826 5828 5831 5834 5836 5837 5839 5842 5844 5847 5849 5851 5854 5856 5858 5861 5863 5865 5867 5869 5870 5872 5874 5875 5876 5878 5879 5880 5881 5882 5883 5883 5884 5884
5798 5795 5793 5791 5788 5786 5784 5781 5779 5776 5774 5772 5770 5768 5767 5765 5764 5763 5763 5762 5762 5762 5763 5764 5765 5766 5769 5771 5773 5775 5776 5778 5780 5782 5784 5786 5787 5789 5791 5794 5796 5799 5802 5804 5808 5813 5814 5814 5815 5817 5820 5821 5824 5828 5830 5831 5832 5834 5837 5839 5841 5843 5846 5849 5851 5853 5856 5858 5860 5862 5864 5865 5867 5869 5870 5872 5873 5874 5875 5876 5877 5878 5879 5879 5880
5793 5791 5788 5786 5784 5782 5779 5777 5775 5772 5770 5767 5765 5762 5761 5759 5758 5757 5756 5756 5755 5755 5756 5757 5758 5759 5761 5764 5766 5768 5770 5772 5774 5776 5777 5779 5781 5783 5785 5788 5791 5793 5796 5799 5802 5807 5809 5810 5810 5812 5814 5817 5821 5824 5825 5827 5828 5830 5832 5834 5836 5838 5841 5844 5846 5849 5851 5853 5855 5857 5858 5860 5862 5863 5865 5866 5868 5869 5870 5871 5872 5873 5874 5874 5875
5789 5787 5784 5782 5780 5778 5775 5773 5771 5768 5765 5763 5760 5757 5755 5754 5752 5751 5750 5750 5749 5749 5749 5750 5751 5752 5754 5757 5759 5761 5763 5765 5768 5770 5771 5772 5774 5777 5780 5783 5785 5788 5790 5793 5796 5801 5804 5805 5805 5806 5809 5813 5816 5819 5820 5822 5824 5825 5827 5829 5831 5834 5837 5840 5842 5844 5846 5848 5850 5851 5853 5855 5857 5858 5860 5861 5862 5864 5865 5866 5867 5868 5869 5869 5870
5785 5783 5780 5778 5776 5773 5771 5769 5766 5764 5761 5758 5755 5752 5750 5749 5747 5746 5745 5744 5743 5743 5743 5744 5744 5746 5747 5750 5753 5755 5756 5758 5761 5763 5765 5766 5768 5771 5774 5777 5779 5782 5784 5787 5790 5794 5798 5800 5801 5802 5804 5807 5811 5813 5815 5818 5819 5821 5823 5825 5827 5830 5833 5835 5837 5839 5841 5842 5844 5846 5848 5850 5852 5853 5854 5856 5857 5859 5860 5861 5862 5863 5864 5865 5866
5781 5778 5776 5774 5772 5769 5767 5764 5762 5759 5756 5753 5750 5748 5746 5744 5742 5741 5740 5739 5738 5738 5738 5738 5739 5740 5741 5743 5746 5748 5750 5752 5754 5757 5759 5760 5762 5765 5768 5770 5773 5776 5778 5781 5785 5788 5792 5795 5797 5798 5799 5801 5805 5808 5810 5813 5815 5817 5819 5821 5823 5826 5829 5831 5833 5834 5836 5837 5839 5841 5843 5845 5847 5848 5850 5851 5853 5854 5855 5856 5858 5859 5860 5860 5861
5777 5774 5772 5770 5767 5765 5762 5760 5758 5754 5751 5749 5746 5744 5742 5740 5738 5736 5735 5734 5733 5733 5733 5733 5733 5734 5735 5737 5739 5741 5744 5746 5748 5750 5752 5754 5757 5760 5762 5765 5767 5770 5772 5775 5779 5782 5786 5789 5792 5793 5793 5796 5800 5804 5806 5808 5811 5813 5815 5817 5819 5822 5825 5827 5829 5830 5831 5832 5835 5837 5839 5840 5842 5844 5845 5847 5848 5849 5850 5852 5853 5854 5855 5856 5857
5773 5771 5768 5766 5763 5760 5758 5756 5753 5750 5747 5745 5742 5739 5737 5736 5734 5732 5731 5730 5729 5728 5727 5727 5728 5728 5729 5731 5733 5736 5738 5740 5741 5744 5746 5748 5751 5754 5757 5760 5761 5763 5766 5769 5773 5776 5780 5783 5786 5788 5789 5791 5795 5799 5801 5803 5806 5809 5811 5814 5816 5818 5821 5822 5824 5825 5826 5828 5830 5832 5834 5836 5837 5839 5841 5842 5844 5845 5846 5847 5849 5850 5851 5852 5853
5769 5766 5764 5762 5759 5756 5753 5751 5749 5746 5743 5741 5738 5735 5733 5731 5729 5728 5726 5725 5724 5723 5722 5722 5722 5723 5724 5726 5728 5730 5732 5734 5736 5738 5740 5742 5745 5748 5751 5753 5755 5757 5760 5764 5767 5770 5774 5777 5780 5783 5784 5786 5789 5793 5795 5798 5802 5806 5808 5810 5812 5814 5816 5817 5818 5819 5821 5823 5826 5828 5830 5831 5833 5834 5836 5838 5839 5840 5841 5843 5844 5845 5846 5847 5849
5764 5762 5760 5758 5755 5752 5749 5747 5745 5742 5739 5737 5734 5731 5729 5727 5725 5723 5722 5720 5719 5718 5718 5718 5717 5718 5719 5721 5723 5725 5727 5729 5731 5732 5734 5737 5739 5742 5744 5746 5749 5752 5754 5758 5761 5764 5768 5772 5774 5777 5779 5781 5783 5787 5790 5794 5799 5802 5804 5805 5807 5809 5810 5811 5813 5815 5817 5819 5822 5824 5825 5827 5828 5830 5832 5833 5834 5835 5837 5839 5840 5841 5842 5843 5845
5760 5757 5755 5753 5750 5748 5745 5743 5741 5738 5735 5732 5730 5727 5725 5723 5721 5720 5718 5716 5715 5714 5713 5713 5713 5713 5714 5716 5718 5720 5721 5723 5725 5727 5729 5731 5733 5736 5738 5740 5743 5746 5748 5752 5755 5759 5762 5766 5768 5771 5774 5776 5778 5782 5785 5790 5794 5796 5798 5800 5803 5804 5804 5806 5809 5811 5813 5815 5817 5820 5821 5822 5824 5826 5827 5828 5829 5831 5833 5834 5836 5837 5838 5839 5840
5755 5753 5751 5749 5746 5744 5741 5739 5736 5734 5732 5729 5726 5724 5721 5719 5717 5716 5714 5712 5711 5709 5708 5708 5709 5709 5709 5711 5713 5714 5716 5718 5720 5722 5724 5725 5727 5730 5732 5734 5737 5740 5742 5746 5750 5753 5757 5760 5763 5765 5768 5771 5774 5776 5779 5783 5787 5790 5793 5795 5797 5799 5800 5802 5805 5807 5808 5810 5813 5815 5817 5818 5820 5822 5823 5824 5825 5827 5829 5830 5831 5832 5833 5834 5835
5751 5749 5747 5744 5742 5739 5737 5735 5733 5731 5728 5726 5723 5720 5718 5715 5714 5713 5710 5708 5707 5705 5704 5704 5704 5704 5704 5706 5708 5709 5710 5712 5713 5715 5718 5720 5722 5724 5726 5729 5731 5734 5737 5740 5744 5748 5751 5754 5757 5760 5763 5766 5769 5771 5774 5777 5781 5785 5788 5790 5791 5793 5795 5797 5800 5803 5804 5805 5808 5811 5813 5815 5816 5818 5819 5820 5821 5823 5825 5826 5827 5828 5829 5830 5831
5747 5744 5742 5740 5738 5736 5734 5731 5729 5727 5725 5722 5720 5717 5715 5712 5710 5709 5707 5705 5703 5701 5701 5700 5700 5700 5700 5702 5703 5703 5705 5706 5707 5710 5712 5714 5717 5719 5721 5723 5726 5729 5732 5735 5739 5742 5745 5749 5752 5755 5758 5761 5764 5766 5768 5771 5774 5778 5781 5784 5787 5789 5791 5793 5796 5798 5799 5801 5804 5808 5810 5811 5812 5813 5815 5816 5817 5819 5821 5822 5823 5823 5824 5825 5826
5743 5740 5738 5736 5734 5732 5730 5728 5726 5724 5722 5719 5717 5714 5712 5709 5706 5705 5703 5702 5699 5698 5697 5697 5696 5696 5697 5697 5698 5699 5700 5701 5703 5705 5707 5710 5712 5714 5716 5718 5721 5724 5727 5730 5733 5737 5740 5743 5746 5750 5754 5756 5759 5762 5763 5764 5767 5771 5775 5779 5782 5783 5786 5788 5791 5793 5796 5798 5800 5803 5806 5807 5807 5809 5811 5812 5814 5816 5817 5818 5819 5819 5820 5821 5822
5739 5736 5734 5732 5730 5728 5726 5725 5723 5721 5718 5716 5714 5711 5709 5706 5703 5701 5700 5698 5696 5694 5694 5693 5693 5693 5693 5693 5695 5697 5698 5698 5699 5701 5703 5705 5707 5709 5711 5714 5717 5719 5722 5725 5729 5732 5735 5737 5741 5746 5749 5751 5754 5756 5757 5757 5760 5765 5770 5773 5775 5778 5781 5785 5788 5791 5793 5795 5795 5797 5801 5802 5803 5805 5807 5809 5810 5812 5813 5814 5815 5815 5816 5817 5818
5735 5732 5730 5728 5727 5725 5723 5722 5720 5718 5715 5713 5711 5709 5706 5703 5700 5698 5697 5695 5693 5691 5690 5689 5689 5690 5690 5690 5692 5693 5694 5695 5696 5698 5699 5701 5703 5704 5706 5709 5712 5714 5717 5721 5724 5726 5729 5732 5736 5739 5742 5744 5747 5749 5749 5751 5754 5758 5762 5766 5769 5773 5779 5783 5785 5787 5789 5790 5791 5793 5796 5798 5799 5801 5803 5805 5806 5808 5809 5810 5811 5811 5812 5812 5813
5731 5729 5726 5724 5723 5722 5720 5719 5717 5715 5713 5711 5709 5707 5704 5701 5698 5695 5694 5693 5691 5689 5687 5686 5685 5685 5686 5686 5688 5689 5690 5691 5692 5693 5694 5696 5699 5700 5702 5705 5707 5709 5713 5716 5718 5720 5723 5726 5730 5733 5735 5737 5739 5741 5742 5744 5748 5751 5754 5759 5764 5770 5775 5778 5781 5783 5784 5785 5787 5789 5791 5794 5795 5796 5798 5800 5802 5803 5805 5806 5807 5808 5808 5808 5809
5728 5726 5724 5722 5720 5719 5717 5716 5715 5713 5710 5708 5706 5704 5702 5699 5696 5693 5692 5690 5689 5687 5685 5683 5682 5682 5682 5682 5683 5685 5686 5687 5688 5688 5690 5692 5694 5695 5697 5699 5701 5704 5708 5711 5712 5715 5717 5720 5724 5726 5728 5731 5733 5735 5737 5739 5742 5745 5749 5755 5760 5765 5769 5773 5776 5777 5778 5780 5783 5785 5787 5789 5790 5791 5793 5796 5797 5799 5801 5802 5803 5804 5804 5804 5805
5725 5723 5721 5719 5717 5716 5715 5713 5712 5710 5708 5706 5704 5702 5699 5697 5695 5692 5689 5688 5686 5684 5682 5680 5679 5679 5679 5679 5679 5680 5681 5682 5683 5684 5685 5687 5689 5690 5692 5693 5696 5700 5703 5704 5706 5709 5712 5714 5717 5720 5723 5726 5729 5732 5734 5736 5737 5741 5745 5751 5755 5759 5764 5768 5770 5771 5773 5776 5779 5780 5781 5784 5786 5787 5789 5791 5793 5795 5797 5798 5800 5801 5801 5801 5801